When you browse on this site, cookies collect data to enhance your experience and personalize the content and advertising you see.
Visit our Privacy Policy to learn more. By continuing to use the site, you agree to this use of cookies and data.

Hourly Weather Gitega

Today, 22 September, Tuesday

Time Temperature Precipitation Wind Pressure Humidity
00:00 +18°C° 0 mm 0 mps 623 mmHg 62%
01:00 +17°C° 0 mm 0 mps 623 mmHg 64%
02:00 +17°C° 0 mm 0 mps 622 mmHg 62%
03:00 +17°C° 0 mm 0 mps 622 mmHg 64%
04:00 +18°C° 0 mm 1 mps 622 mmHg 65%
05:00 +18°C° 0 mm 1 mps 622 mmHg 67%
06:00 +20°C° 0 mm 1 mps 623 mmHg 60%
07:00 +22°C° 0 mm 1 mps 625 mmHg 53%
08:00 +25°C° 0 mm 1 mps 626 mmHg 47%
09:00 +26°C° 0 mm 2 mps 626 mmHg 45%
10:00 +27°C° 0 mm 3 mps 626 mmHg 42%
11:00 +28°C° 0 mm 4 mps 626 mmHg 40%
12:00 +28°C° 0.2 mm 4 mps 626 mmHg 40%
13:00 +28°C° 0.2 mm 3 mps 625 mmHg 41%
14:00 +28°C° 0.2 mm 3 mps 624 mmHg 42%
15:00 +26°C° 0.4 mm 3 mps 624 mmHg 47%
16:00 +25°C° 0.4 mm 2 mps 623 mmHg 53%
17:00 +24°C° 0.4 mm 2 mps 622 mmHg 58%
18:00 +21°C° 0.3 mm 2 mps 623 mmHg 63%
19:00 +20°C° 0.3 mm 2 mps 623 mmHg 68%
20:00 +20°C° 0.3 mm 1 mps 623 mmHg 74%
21:00 +19°C° 0.4 mm 1 mps 623 mmHg 77%
22:00 +19°C° 0.4 mm 1 mps 623 mmHg 80%
23:00 +16°C° 0.4 mm 0 mps 623 mmHg 83%

Tomorrow, 23 September, Wednesday

Time Temperature Precipitation Wind Pressure Humidity
00:00 +16°C° 0.1 mm 0 mps 623 mmHg 83%
01:00 +15°C° 0.1 mm 0 mps 622 mmHg 83%
02:00 +16°C° 0.1 mm 1 mps 622 mmHg 84%
03:00 +16°C° 0 mm 1 mps 622 mmHg 84%
04:00 +16°C° 0 mm 1 mps 622 mmHg 84%
05:00 +16°C° 0 mm 1 mps 622 mmHg 84%
06:00 +18°C° 0 mm 1 mps 623 mmHg 81%
07:00 +19°C° 0 mm 1 mps 624 mmHg 77%
08:00 +20°C° 0 mm 1 mps 624 mmHg 74%
09:00 +23°C° 0 mm 2 mps 625 mmHg 61%
10:00 +25°C° 0 mm 3 mps 626 mmHg 49%
11:00 +28°C° 0 mm 4 mps 626 mmHg 37%
12:00 +29°C° 0 mm 4 mps 626 mmHg 34%
13:00 +30°C° 0 mm 4 mps 625 mmHg 31%
14:00 +30°C° 0 mm 4 mps 624 mmHg 28%
15:00 +30°C° 0 mm 3 mps 623 mmHg 28%
16:00 +29°C° 0 mm 3 mps 623 mmHg 28%
17:00 +29°C° 0 mm 2 mps 623 mmHg 28%
18:00 +27°C° 0 mm 2 mps 623 mmHg 32%
19:00 +25°C° 0 mm 1 mps 622 mmHg 36%
20:00 +23°C° 0 mm 1 mps 622 mmHg 40%
21:00 +22°C° 0 mm 1 mps 622 mmHg 43%
22:00 +22°C° 0 mm 1 mps 623 mmHg 45%
23:00 +21°C° 0 mm 1 mps 623 mmHg 48%

Day after tomorrow, 24 September, Thursday

Time Temperature Precipitation Wind Pressure Humidity
00:00 +21°C° 0 mm 1 mps 623 mmHg 48%
01:00 +21°C° 0 mm 1 mps 622 mmHg 49%
02:00 +21°C° 0 mm 1 mps 622 mmHg 49%
03:00 +20°C° 0 mm 1 mps 622 mmHg 52%
04:00 +19°C° 0 mm 1 mps 622 mmHg 54%
05:00 +18°C° 0 mm 1 mps 622 mmHg 57%
06:00 +19°C° 0 mm 2 mps 623 mmHg 55%
07:00 +20°C° 0 mm 3 mps 624 mmHg 52%
08:00 +22°C° 0 mm 4 mps 626 mmHg 50%
09:00 +25°C° 0 mm 4 mps 626 mmHg 45%
10:00 +27°C° 0 mm 4 mps 626 mmHg 40%
11:00 +29°C° 0 mm 4 mps 626 mmHg 35%
12:00 +28°C° 0 mm 3 mps 625 mmHg 35%
13:00 +28°C° 0 mm 3 mps 624 mmHg 34%
14:00 +28°C° 0 mm 3 mps 623 mmHg 34%
15:00 +28°C° 0 mm 3 mps 623 mmHg 36%
16:00 +27°C° 0 mm 2 mps 622 mmHg 37%
17:00 +26°C° 0 mm 2 mps 622 mmHg 39%
18:00 +25°C° 0 mm 2 mps 622 mmHg 43%
19:00 +24°C° 0 mm 1 mps 622 mmHg 48%
20:00 +20°C° 0 mm 0 mps 623 mmHg 52%
21:00 +20°C° 0 mm 0 mps 623 mmHg 54%
22:00 +21°C° 0 mm 1 mps 622 mmHg 57%
23:00 +20°C° 0 mm 1 mps 622 mmHg 59%

25 September, Friday

Time Temperature Precipitation Wind Pressure Humidity
00:00 +19°C° 0 mm 1 mps 622 mmHg 61%
01:00 +19°C° 0 mm 1 mps 621 mmHg 63%
02:00 +18°C° 0 mm 1 mps 621 mmHg 65%
03:00 +18°C° 0 mm 1 mps 621 mmHg 65%
04:00 +18°C° 0 mm 1 mps 621 mmHg 65%
05:00 +18°C° 0 mm 1 mps 621 mmHg 66%
06:00 +19°C° 0 mm 1 mps 622 mmHg 64%
07:00 +20°C° 0 mm 1 mps 623 mmHg 62%
08:00 +20°C° 0 mm 2 mps 624 mmHg 60%
09:00 +23°C° 0 mm 2 mps 624 mmHg 54%
10:00 +25°C° 0 mm 2 mps 625 mmHg 48%
11:00 +27°C° 0 mm 2 mps 625 mmHg 42%
12:00 +27°C° 0 mm 2 mps 624 mmHg 40%
13:00 +28°C° 0 mm 3 mps 624 mmHg 37%
14:00 +29°C° 0 mm 3 mps 623 mmHg 35%
15:00 +28°C° 0 mm 3 mps 623 mmHg 38%
16:00 +27°C° 0 mm 3 mps 622 mmHg 41%
17:00 +26°C° 0 mm 3 mps 622 mmHg 44%
18:00 +24°C° 0.1 mm 3 mps 622 mmHg 51%
19:00 +23°C° 0.1 mm 2 mps 622 mmHg 57%
20:00 +21°C° 0.1 mm 1 mps 622 mmHg 64%
21:00 +20°C° 0.3 mm 1 mps 622 mmHg 68%
22:00 +19°C° 0.3 mm 1 mps 622 mmHg 73%
23:00 +18°C° 0.3 mm 1 mps 622 mmHg 77%

26 September, Saturday

Time Temperature Precipitation Wind Pressure Humidity
00:00 +18°C° 0.1 mm 1 mps 621 mmHg 79%
01:00 +18°C° 0.1 mm 1 mps 621 mmHg 80%
02:00 +15°C° 0.1 mm 0 mps 620 mmHg 82%
03:00 +16°C° 0 mm 1 mps 620 mmHg 83%
04:00 +16°C° 0 mm 1 mps 620 mmHg 84%
05:00 +16°C° 0 mm 1 mps 620 mmHg 84%
06:00 +19°C° 0 mm 1 mps 622 mmHg 74%
07:00 +20°C° 0 mm 0 mps 623 mmHg 65%
08:00 +22°C° 0 mm 0 mps 625 mmHg 55%
09:00 +26°C° 0.1 mm 1 mps 625 mmHg 49%
10:00 +28°C° 0.1 mm 2 mps 625 mmHg 42%
11:00 +29°C° 0.1 mm 3 mps 625 mmHg 36%
12:00 +28°C° 0.2 mm 2 mps 624 mmHg 42%
13:00 +26°C° 0.2 mm 2 mps 622 mmHg 47%
14:00 +25°C° 0.2 mm 2 mps 621 mmHg 53%
15:00 +25°C° 0.3 mm 2 mps 621 mmHg 54%
16:00 +24°C° 0.3 mm 1 mps 621 mmHg 56%
17:00 +24°C° 0.3 mm 1 mps 621 mmHg 58%
18:00 +22°C° 0.6 mm 1 mps 621 mmHg 65%
19:00 +21°C° 0.6 mm 1 mps 621 mmHg 72%
20:00 +19°C° 0.6 mm 1 mps 621 mmHg 79%
21:00 +19°C° 1.3 mm 1 mps 621 mmHg 83%
22:00 +18°C° 1.3 mm 1 mps 621 mmHg 87%
23:00 +18°C° 1.3 mm 1 mps 621 mmHg 91%

27 September, Sunday

Time Temperature Precipitation Wind Pressure Humidity
00:00 +18°C° 0.4 mm 1 mps 621 mmHg 91%
01:00 +16°C° 0.4 mm 1 mps 621 mmHg 92%
02:00 +16°C° 0.4 mm 1 mps 620 mmHg 92%
03:00 +16°C° 0 mm 1 mps 620 mmHg 91%
04:00 +15°C° 0 mm 0 mps 621 mmHg 90%
05:00 +15°C° 0 mm 0 mps 621 mmHg 89%
06:00 +17°C° 0 mm 0 mps 622 mmHg 80%
07:00 +19°C° 0 mm 0 mps 623 mmHg 70%
08:00 +22°C° 0 mm 0 mps 624 mmHg 61%
09:00 +25°C° 0.6 mm 1 mps 624 mmHg 56%
10:00 +26°C° 0.6 mm 2 mps 624 mmHg 50%
11:00 +27°C° 0.6 mm 3 mps 624 mmHg 45%
12:00 +27°C° 0.3 mm 3 mps 624 mmHg 45%
13:00 +27°C° 0.3 mm 3 mps 623 mmHg 45%
14:00 +27°C° 0.3 mm 3 mps 622 mmHg 45%
15:00 +26°C° 0.5 mm 2 mps 622 mmHg 50%
16:00 +25°C° 0.5 mm 1 mps 621 mmHg 55%
17:00 +24°C° 0.5 mm 1 mps 621 mmHg 61%
18:00 +23°C° 0.4 mm 1 mps 621 mmHg 65%
19:00 +22°C° 0.4 mm 1 mps 621 mmHg 68%
20:00 +19°C° 0.4 mm 0 mps 622 mmHg 72%
21:00 +21°C° 0.8 mm 1 mps 622 mmHg 76%
22:00 +20°C° 0.8 mm 1 mps 622 mmHg 79%
23:00 +19°C° 0.8 mm 1 mps 622 mmHg 83%
Show more